星链-30370 (STARLINK-30370 )

导读

STARLINK-30370是美国太空探索技术公司(SpaceX)星链(Starlink)星座中的一颗卫星,由美国于2023年9月1日发射。星链星座旨在构建全球卫星互联网,该卫星入轨后,助力为全球提供低延迟、高速率的宽带互联网服务,尤其改善偏远地区的网络覆盖。

基本信息
目录编号:
57751
目录名称:
STARLINK-30370
国际标识:
2023-131V
轨道中心:
EARTH
卫星名称:
星链-30370
卫星全名:
星链-30370 (STARLINK-30370 )
卫星状态:
在轨 (已飞行1106 天)
发射日期:
2023-09-01 UTC
国别 :
美国 (US)
星等 :
--
该卫星已列入 空间交会检测服务 Space Conjunction Data Service (SCDS) ,当前飞行风险评估等级: 无高风险
轨道信息
数据来源 国际轨道数据 AOE轨道数据
星历时间 2026-09-11T12:54:50+0800
9小时前
查看轨道信息
2026-09-09T22:00:00+0800
2天前
查看轨道信息
半长轴 6831.431km 6831.439km
偏心率 0.0001532 0.0001229
轨道倾角 43.003° 42.998°
近地点辐角 275.297° 240.484°
升交点赤经 183.837° 193.136°
平近点角 84.771° 134.101°
近地点 452.247km 452.462km
远地点 454.341km 454.142km
周期 93.654分钟 93.654分钟
每日圈数 15.375712 15.375688
详细信息
固有亮度:
5
最大亮度:
0.3
卫星平台:
Starlink v2.0 mini
覆盖范围:
全球
运营商:
太空探索技术公司
运营商所在国:
美国
制造商(研发单位):
太空探索技术公司
制造商所在国:
美国
使用方式:
暂无
卫星简介
星链(Starlink)计划是由太空探索技术公司(SpaceX)提出的一个巨型低轨卫星互联网星座项目,计划在2019年至2024年间在太空搭建由约1.2万颗卫星组成的“星链”网络,其中1584颗将部署在地球上空550千米处的近地轨道,并从2020年开始工作。该卫星仍在工作。
2D轨道图
3D轨道图
轨道高度分析图
轨道倾角分析图
轨道综合分析图
查看轨道综合分析图
交会数据列表
事件ID 空间交会对象 最接近时刻(TCA) 交会距离 交会风险概率(CRP) 交会风险指数(CRI) 操作
CDM_260913-022605-775105-855521
HONGHU 2 (58555)
2026-09-13T
02:26:28+0000
0.880 km
远距离
3.227573E-5 中风险 0.65
CDM_260913-223605-348105-775121
2026-09-13T
22:36:29+0000
1.591 km
极远距离
5.307696E-6 低风险 0.49
CDM_260912-213305-703805-775124
2026-09-12T
21:33:12+0000
2.781 km
极远距离
1.448485E-6 低风险 0.38
与全量物体交会距离演化趋势
与全量物体交会风险概率演化趋势